Location: Old Broadwell Mill Observatory
(33.8015°N, 85.8137°W)
Time: 19:49:15
(UTC-06:00)

Daily predictions for brighter satellites

Satellite Brightness Start Highest point End
(mag) Time Altitude Azimuth Time Altitude Azimuth Time Altitude Azimuth
COSMOS 2455 3.6 16:54:21 10° SW 17:00:11 54° WNW 17:06:05 10° NNE
AQUARIUS 4.4 16:56:17 10° SSE 17:00:35 49° ENE 17:04:55 10° N
ERBS 2.8 16:57:38 10° NNW 17:00:51 39° NE 17:04:04 10° ESE
SMAP 3.2 16:57:00 10° SSE 17:01:29 52° ENE 17:06:00 10° N
Sich 1 Rocket 4.4 17:02:08 10° NNE 17:06:00 29° ENE 17:09:52 10° SE
CZ-4 R/B 1.7 17:03:04 10° SE 17:06:41 39° ENE 17:10:17 10° N
Meteor 1-28 Rocket 3.1 17:07:08 10° NNE 17:10:49 67° E 17:14:30 10° S
Chunghua 1 4.4 17:08:29 10° W 17:12:13 83° N 17:15:54 10° E
Cosmos 1606 3.3 17:08:53 10° SSE 17:12:20 35° E 17:15:48 10° NNE
Okean 1-7 3.8 17:09:07 10° SSE 17:12:56 30° E 17:16:46 10° NNE
Cosmos 468 Rocket 4.3 17:08:06 10° NNW 17:13:15 74° WSW 17:18:21 10° S
Cosmos 1484 Rocket 2.7 17:10:53 10° SSE 17:14:42 78° ENE 17:18:36 10° N
BREEZE-M R/B 4.0 17:15:49 10° NNW 17:18:07 20° NE 17:20:54 12° E
CZ-4C R/B 4.3 17:16:12 10° N 17:20:28 16° NE 17:24:02 12° ENE
Landsat 4 3.7 17:18:38 10° NNE 17:22:25 67° ESE 17:26:11 10° S
EO 1 Del DPAF 3.7 17:21:21 10° NNE 17:24:57 40° E 17:28:33 10° S
CSL-04 Rocket 4.2 17:23:08 10° S 17:28:22 64° WSW 17:33:39 10° NNW
Meteor 2-6 Rocket 4.4 17:24:17 10° SSE 17:29:23 45° E 17:34:36 10° NNE
Cosmos 1763 Rocket 3.5 17:26:26 10° NNW 17:31:38 89° WSW 17:36:44 10° SSE
CZ-3A R/B 4.2 17:18:28 10° NW 17:32:30 48° NNE 17:38:13 10° ESE
Cosmos 1782 Rocket 3.9 17:29:39 10° N 17:33:46 40° E 17:37:52 10° SSE
METEOR-M 4.2 17:29:03 10° SSE 17:34:12 52° ENE 17:39:22 10° N
Cosmos 2082 Rocket 2.8 17:29:59 10° N 17:35:05 33° ENE 17:40:07 10° SE
YAOGAN 1 2.5 17:31:29 10° SSE 17:35:46 65° ENE 17:40:03 10° N
Cosmos 1782 2.7 17:33:22 10° S 17:37:24 79° E 17:41:25 10° N
Meteor 1-20 Rocket 4.1 17:33:31 10° N 17:39:04 77° E 17:44:31 10° SSE
USA 116 4.4 17:34:54 10° N 17:39:10 60° WNW 17:42:54 10° SSW
COSMO-SKYMED 1 2.5 17:35:11 10° NNE 17:39:31 68° E 17:43:49 10° S
Meteor 1-25 Rocket 4.3 17:33:40 10° N 17:39:31 87° E 17:45:18 10° S
ERS-2 2.1 17:40:21 10° SSE 17:43:59 62° ENE 17:47:37 10° N
Cosmos 405 Rocket 3.0 17:41:39 10° SSE 17:45:16 42° E 17:47:47 17° NNE
Cosmos 1072 Rocket 4.4 17:40:18 10° S 17:46:27 75° E 17:52:44 10° N
SL-27 R/B 2.1 17:45:09 10° NNW 17:48:30 73° ENE 17:51:50 10° SSE
OAO 3 Rocket 3.6 17:47:00 10° SW 17:51:46 52° SSE 17:54:18 26° E
Cosmos 1503 Rocket 4.1 17:46:32 10° SSW 17:51:49 81° WNW 17:57:05 10° NNE
Cosmos 2221 Rocket 3.5 17:48:14 10° S 17:52:38 85° E 17:57:03 10° N
Cosmos 2034 Rocket 4.1 17:47:02 10° SSE 17:53:12 55° E 17:59:23 10° NNE
Cosmos 44 Rocket 4.3 17:51:08 10° N 17:55:05 25° NE 17:55:05 25° NE
GPS 2-05 Rocket1 2.7 17:52:17 10° WSW 17:55:26 66° SSE 17:56:14 44° E
Cosmos 968 Rocket 3.9 17:51:19 10° S 17:56:04 39° E 17:58:25 25° NE
Cosmos 540 Rocket 3.4 17:53:02 10° N 17:58:08 58° ENE 18:03:11 10° SSE
Meteor 1-27 Rocket 3.9 17:53:19 10° S 17:59:00 54° E 18:04:46 10° NNE
USA 234 3.3 17:55:35 15° NE 18:01:09 78° NW 18:07:39 10° SW
Tiangong 1 1.9 18:00:59 10° SW 18:02:49 30° S 18:02:49 30° S
OAO 3 Copernicus 4.2 17:59:05 10° W 18:04:12 89° S 18:06:30 33° ESE
Cosmos 292 Rocket 4.1 18:01:13 10° N 18:05:40 39° ENE 18:06:28 36° E
MONITOR-E 4.2 18:03:21 10° S 18:06:23 74° W 18:09:26 10° NNW
Cosmos 841 Rocket 4.3 18:02:02 10° NNW 18:07:10 54° WSW 18:12:16 10° S
Meteor 1-10 Rocket 4.5 18:02:20 10° SSW 18:07:57 72° W 18:13:43 10° N
Cosmos 836 Rocket 4.4 18:03:27 10° NNW 18:08:42 72° ENE 18:13:57 10° SSE
DMSP B5D1-3 4.4 18:04:31 10° NNE 18:09:42 83° ESE 18:14:50 10° SSW
Meteor 2-20 4.4 18:05:26 10° N 18:11:24 56° E 18:17:19 10° SSE
FENGYUN 3A 3.5 18:08:55 10° SSE 18:14:19 76° ENE 18:19:43 10° N
Cosmos 1633 3.7 18:11:08 10° NNW 18:14:39 44° W 18:18:08 10° SSW
Okean 2 Rocket 3.0 18:11:19 10° N 18:15:52 82° E 18:20:22 10° S
Cosmos 1464 Rocket 4.4 18:15:23 10° SSW 18:21:24 61° W 18:27:28 10° N
Cosmos 44 3.6 18:18:58 10° NNW 18:22:54 45° NNE 18:22:54 45° NNE
Cosmos 2369 Rocket 3.6 18:22:56 10° SSE 18:25:17 21° SE 18:25:17 21° SE
ALOS 2.6 18:25:48 10° S 18:30:26 67° W 18:35:05 10° NNW
Cosmos 1833 Rocket 2.7 18:25:23 10° NNW 18:31:01 78° WSW 18:36:37 10° SSE
SPOT 3 Rocket 4.0 18:26:46 10° S 18:31:54 60° WSW 18:37:04 10° NNW
Meteor 1-11 Rocket 3.7 18:36:49 10° N 18:42:39 85° W 18:48:20 10° S
Gblst 52 Del rocket 4.1 18:37:17 10° SW 18:42:46 69° SE 18:42:56 68° ESE
USA 229 DEB 3.5 18:39:59 10° SSW 18:46:40 73° ESE 18:47:40 63° ENE
USA 229 3.5 18:40:05 10° SSW 18:46:46 72° ESE 18:47:43 63° ENE
Meteor 2-20 Rocket 4.4 18:48:50 10° N 18:54:56 81° W 19:00:59 10° S
Thor Agena Rocket 4.3 19:08:06 45° NW 19:08:40 47° WNW 19:13:35 10° SW
CZ-4C R/B 3.0 19:02:48 10° NNW 19:09:18 65° NNE 19:09:18 65° NNE
Cosmos 2082 Rocket 4.0 19:14:14 10° NW 19:18:59 28° WSW 19:23:41 10° SSW
